Cloud_Cover
100 100 100 98 85 99 6 5 5 4 5 77 94 100 100 100 100 100 100 100 100 100 100 100 100 100 100 99 87 94 48 63 69 23 94 7 9 4 2 0 5 1 0
100 100 82 80 93 5 5 5 5 9 78 74 97 100 100 100 100 100 100 100 100 100 100 100 100 100 100 100 99 75 18 10 5 5 5 70 92 23 22 52 12 5 5
100 79 68 92 58 9 26 26 41 100 100 100 99 90 100 100 100 100 100 100 100 100 100 100 100 100 100 100 100 100 100 99 39 42 8 10 53 46 5 5 5 5 12
100 99 48 8 62 74 91 90 100 100 100 99 81 67 85 88 100 100 100 100 100 100 100 100 100 100 100 100 100 100 100 83 11 5 5 5 5 19 59 33 5 27 50
100 98 95 37 100 100 100 100 100 100 100 97 55 77 81 62 89 100 100 100 100 100 100 100 100 100 100 100 100 100 87 100 100 100 100 98 99 100 100 98 100 100 93
100 100 100 30 49 5 5 6 87 100 100 100 100 98 90 82 69 94 98 100 100 100 100 100 99 99 47 28 32 66 49 98 100 100 100 100 100 100 100 100 100 100 98
87 95 46 14 5 5 5 5 5 5 5 5 5 5 12 28 56 91 66 25 43 53 48 48 99 88 58 99 99 100 100 100 100 100 100 100 100 100 100 100 100 100 100
95 24 28 61 30 5 5 5 2 5 5 7 6 9 17 19 5 13 38 98 100 100 100 100 100 100 100 98 100 100 100 100 100 100 100 100 100 100 100 100 100 100 100
53 100 100 88 61 5 5 0 5 5 5 14 16 5 5 5 5 5 5 91 100 98 79 98 99 100 98 99 100 99 100 100 100 72 64 86 62 77 98 100 100 100 100
100 100 100 100 58 5 3 0 2 4 4 5 5 5 5 5 5 5 76 100 100 100 100 100 98 93 92 96 100 100 100 100 99 100 100 100 94 100 97 100 100 100 100
92 91 86 40 24 5 3 0 0 5 5 5 5 5 8 5 6 55 94 100 100 100 100 100 100 100 100 94 99 100 100 100 100 100 100 100 100 98 100 100 100 100 100
5 56 75 55 5 5 5 5 5 5 6 41 63 97 100 98 99 54 77 100 100 100 100 100 100 100 97 93 92 100 100 98 100 100 100 99 100 100 100 100 100 99 100
5 65 64 5 5 4 12 5 53 83 97 96 100 100 100 100 100 100 95 100 100 99 100 100 100 97 99 86 100 100 95 100 100 100 100 100 100 100 100 100 100 100 100
5 5 5 5 5 7 89 15 73 100 100 100 100 100 100 100 100 100 100 100 100 100 100 100 100 100 100 100 100 100 100 100 100 100 100 100 100 100 100 100 100 100 100
36 5 5 5 6 78 22 5 43 73 64 97 100 100 100 100 100 100 100 100 100 100 100 100 100 100 100 100 100 100 100 100 100 100 100 100 100 100 100 100 100 100 100
55 5 5 5 50 40 5 5 8 5 5 5 16 89 100 100 100 100 100 100 100 100 100 100 100 100 100 100 100 100 100 100 100 100 100 100 100 100 100 100 100 100 100
23 5 5 49 6 5 5 5 74 10 45 17 68 96 100 100 100 100 100 100 100 100 100 100 100 100 100 100 100 100 100 100 100 100 100 100 100 100 100 100 100 100 100
31 33 9 5 5 5 5 5 5 58 87 100 96 99 100 100 100 100 100 100 100 100 100 100 100 100 100 100 100 100 100 100 100 100 100 100 100 100 100 100 100 100 100
95 10 5 5 5 19 5 5 7 76 100 100 100 96 91 100 100 100 100 100 100 100 100 100 100 100 100 100 100 100 100 100 100 100 100 100 100 100 100 99 93 78 95
87 29 6 24 5 5 5 5 71 90 100 100 100 100 100 100 100 100 100 100 100 100 100 100 100 100 100 100 100 100 100 100 100 100 100 100 100 100 100 100 99 98 100
100 98 73 5 5 59 6 14 52 91 100 100 100 100 100 100 100 100 100 100 100 100 100 100 100 100 100 100 100 100 100 100 100 100 100 100 100 100 100 100 100 100 100
100 100 99 67 9 66 49 6 14 77 100 100 100 100 100 100 100 100 100 100 100 100 100 100 100 100 100 100 100 100 100 100 100 100 100 100 100 100 100 100 100 100 100
100 99 99 96 65 49 78 9 7 57 90 100 98 100 100 100 100 100 100 100 100 100 100 100 100 100 100 100 100 100 100 100 100 99 99 100 100 100 100 100 100 100 100
100 100 100 98 94 97 96 95 63 33 35 100 100 100 100 100 100 100 100 100 100 100 100 100 100 100 100 100 100 100 100 100 100 100 73 66 88 94 100 100 100 100 100
100 100 100 96 89 99 99 98 95 50 70 98 100 100 100 100 100 100 100 100 100 100 100 100 100 100 100 100 100 100 100 100 100 100 100 97 58 41 55 88 100 100 85
99 100 97 97 89 99 100 100 100 94 88 96 100 100 100 100 100 100 100 100 100 100 100 100 100 100 100 100 100 100 100 100 100 100 93 66 62 47 45 37 38 93 87